Theta_e
326 325 327 321 307 305 299 299 303 301 302 305 306 307 307 307 305 303 310 309 311 319 322 329 332 334 336 338 339 341 343 344 344 343 343 343 343 343 344 344 344 345 346 347 347 348 348 349 348
324 321 322 315 304 299 300 302 301 304 305 305 304 304 305 305 306 308 308 306 310 315 319 324 328 329 330 332 334 336 337 336 337 338 340 340 340 340 340 339 339 341 343 344 345 346 347 349 348
318 318 317 310 304 298 300 302 303 303 305 304 304 304 305 305 306 310 306 304 308 314 318 320 323 324 325 326 328 330 330 330 332 333 334 333 335 333 333 333 335 336 339 341 343 344 344 345 344
318 315 309 303 299 301 301 303 304 302 302 303 304 303 303 306 307 308 304 302 303 308 314 317 318 321 321 321 323 323 323 323 325 325 327 330 325 323 324 327 328 328 330 333 335 338 339 340 342
316 313 304 301 299 301 302 304 305 303 304 303 303 303 302 303 306 304 303 301 301 303 310 313 314 316 317 317 317 318 318 317 317 318 320 320 317 317 318 320 321 323 324 326 329 332 332 333 337
311 309 302 299 299 301 302 304 304 305 304 301 301 301 303 305 302 302 302 302 301 302 304 307 308 310 312 313 313 313 314 314 313 313 313 313 312 312 313 315 316 317 318 319 323 327 326 327 331
309 307 301 300 299 299 302 304 303 304 303 303 303 302 302 301 303 301 301 301 301 301 301 302 303 304 307 307 308 309 309 310 310 309 308 308 308 308 309 309 312 313 314 315 318 318 319 319 319
310 308 299 299 299 299 302 302 301 303 303 302 305 303 303 303 302 301 301 301 300 299 299 300 302 302 303 304 304 305 306 306 306 306 305 304 304 304 304 305 307 310 311 311 313 313 313 313 313
308 303 300 299 298 301 301 301 301 300 301 301 303 302 301 304 301 300 299 298 298 298 298 300 300 301 301 301 299 301 302 302 302 302 302 304 303 303 303 302 303 306 306 307 309 310 310 309 310
305 302 300 302 302 301 302 302 303 300 300 300 300 301 299 301 299 298 298 296 297 297 297 298 299 299 300 298 300 301 300 301 301 302 302 302 302 301 300 302 301 302 302 304 306 306 306 307 307
303 302 302 302 303 302 302 300 302 301 300 304 304 305 299 299 299 299 299 298 297 297 296 297 298 299 299 299 300 301 301 301 301 301 301 301 301 301 300 300 300 301 301 301 302 303 303 305 306
301 301 302 302 303 301 300 301 299 301 305 303 305 304 300 299 298 298 299 297 296 295 296 296 297 298 299 299 299 299 300 300 300 299 300 299 299 298 298 298 299 299 300 299 299 300 302 303 304
301 301 302 303 302 302 299 300 301 301 304 305 300 299 299 299 300 300 299 297 296 294 295 296 297 297 297 298 298 299 298 298 298 298 298 297 297 296 296 297 297 297 298 297 297 298 299 301 302
301 301 302 301 301 301 299 301 298 303 300 301 299 300 300 300 300 299 297 295 294 295 295 295 296 296 296 297 297 298 298 297 297 297 297 295 295 294 294 295 295 295 295 295 295 296 297 298 300
299 299 302 300 300 299 299 298 298 305 297 299 298 299 299 299 299 298 297 296 294 295 295 295 295 296 296 296 296 297 296 296 296 295 295 294 293 293 292 293 293 294 294 294 295 295 295 296 297
298 297 297 299 299 298 299 295 303 303 299 300 301 299 297 298 298 298 298 296 295 294 294 295 293 294 295 295 295 295 296 296 296 295 295 293 291 291 291 291 292 293 292 293 293 293 293 294 294
298 295 295 296 299 297 297 297 301 300 297 299 301 301 297 297 297 298 297 295 294 294 294 293 294 294 294 294 293 294 294 294 295 294 293 292 291 290 290 290 291 291 291 291 291 291 292 291 293
296 294 295 294 297 295 296 295 300 302 299 299 302 303 299 295 297 297 295 295 293 293 293 293 293 294 293 293 293 293 293 294 293 293 292 290 290 289 289 289 290 290 289 290 290 290 291 291 292
296 295 295 299 295 294 295 295 297 300 300 300 300 302 299 296 298 297 295 293 292 292 292 292 292 292 292 292 291 291 291 291 291 291 290 289 288 288 288 288 288 289 288 288 288 289 289 290 290
295 295 295 297 293 292 293 292 296 297 298 300 300 302 301 297 296 295 292 291 291 291 291 291 291 292 291 291 290 290 289 290 290 290 289 289 288 287 286 286 287 287 287 287 287 287 287 287 289
294 294 296 293 292 291 289 291 292 295 295 297 298 300 300 298 295 293 291 291 290 290 291 291 291 291 291 290 289 288 288 287 287 288 288 288 287 287 286 286 286 286 287 286 286 286 286 284 287
293 296 293 291 290 289 290 286 293 294 294 296 299 299 297 296 295 293 291 290 289 290 291 291 290 289 289 289 288 287 286 286 287 287 287 286 286 285 285 285 285 285 286 285 286 285 285 284 283
294 291 291 289 289 286 290 285 291 288 290 295 299 301 299 298 296 293 291 290 290 291 291 290 290 289 288 288 288 287 286 286 286 285 284 285 285 285 284 284 284 284 285 285 284 284 284 284 283
290 290 288 286 286 283 289 287 290 291 292 295 299 298 298 297 296 295 292 290 290 290 290 290 289 287 287 287 287 286 285 284 283 283 283 283 283 283 283 283 283 283 283 283 284 284 283 283 283
290 291 287 287 284 284 286 284 289 294 295 296 299 300 297 297 295 293 290 288 288 289 289 289 288 286 287 286 285 284 284 283 282 282 281 281 281 281 282 282 281 282 282 282 282 282 282 282 282
289 292 288 283 284 286 282 282 290 294 297 298 294 295 293 294 294 292 290 289 289 288 289 288 288 286 285 285 284 283 282 281 281 280 280 279 279 280 281 280 280 280 280 280 281 281 281 281 282
287 286 292 288 279 282 288 292 293 292 292 292 293 294 294 293 292 291 291 290 288 288 288 288 287 286 284 283 283 281 281 279 279 279 278 278 279 278 278 278 278 279 279 279 279 279 279 280 280
288 290 285 287 282 281 285 287 288 291 292 292 291 293 296 295 293 291 290 289 289 289 289 288 288 286 284 282 281 280 279 278 278 277 277 277 278 277 277 277 277 277 277 277 277 277 278 278 279
285 286 285 286 285 283 281 286 291 292 294 293 295 297 298 296 294 292 290 290 289 289 288 288 287 284 282 281 280 278 277 277 276 276 276 276 276 276 275 275 275 275 275 276 275 275 275 275 275
290 289 289 284 283 284 285 286 293 294 295 294 296 295 296 296 296 294 291 289 288 287 287 286 285 282 281 280 278 277 276 275 275 275 275 275 274 275 274 274 273 273 273 273 273 272 273 272 272
Wind_Speed
5 1 1 4 5 4 4 5 1 6 6 3 3 6 10 3 3 1 6 4 4 5 6 8 11 11 12 13 14 14 15 15 14 14 14 13 13 14 15 15 14 12 10 10 11 11 12 9 7
6 3 2 1 4 4 4 5 9 8 4 9 6 4 4 4 2 7 7 4 4 5 5 9 10 10 12 13 13 13 14 13 12 12 12 13 14 15 13 12 11 12 12 11 11 11 12 12 11
3 1 3 2 2 4 1 7 7 5 11 5 5 2 1 1 4 9 7 7 6 5 6 9 9 10 12 13 13 14 15 15 14 14 12 11 11 12 12 12 12 14 13 12 12 12 12 12 12
3 4 3 5 4 1 3 7 7 10 6 4 1 4 3 1 5 7 11 8 8 6 6 8 9 11 12 12 12 13 14 14 14 14 14 16 15 13 13 14 14 13 12 12 12 13 14 14 12
1 2 3 3 3 2 3 4 10 13 7 6 6 2 3 5 7 12 11 8 8 8 6 7 9 9 10 11 12 12 13 14 15 14 13 15 14 14 13 14 13 14 15 15 15 14 13 14 14
3 3 4 5 3 3 3 6 9 11 5 4 5 3 1 7 13 11 10 8 7 8 6 5 8 9 10 11 11 12 12 13 13 14 14 13 14 14 14 14 15 14 14 14 12 13 15 16 15
3 3 2 3 2 3 3 8 10 12 9 8 0 5 3 12 13 12 10 9 7 7 7 6 6 8 10 10 11 11 11 11 11 12 12 12 12 13 13 12 13 12 12 13 12 13 13 13 15
1 3 3 3 3 3 5 9 1 11 11 3 4 7 4 13 16 13 10 9 8 7 7 6 6 6 6 6 9 10 10 10 11 11 10 9 8 9 11 13 14 14 14 15 13 14 14 14 13
1 4 4 3 5 2 6 9 5 1 5 5 8 4 3 13 17 14 11 10 9 7 7 6 6 6 6 6 6 7 9 9 9 7 10 6 6 8 9 11 14 13 14 13 14 14 15 15 11
4 3 2 0 2 3 5 9 5 6 8 8 8 10 5 18 18 18 16 14 14 12 8 7 7 6 6 4 5 5 5 6 6 7 7 5 6 7 8 7 12 13 15 12 13 13 14 11 8
1 3 1 2 5 4 4 5 5 7 12 14 15 13 15 20 20 19 18 16 14 12 8 8 7 6 6 5 3 2 3 3 4 6 6 6 4 5 5 5 6 7 10 7 10 9 7 10 9
4 4 3 1 2 4 5 3 5 14 17 2 6 6 18 22 22 22 20 18 15 14 11 9 8 7 6 4 4 4 3 3 3 4 5 4 3 5 6 5 7 7 6 9 8 6 9 9 10
5 3 4 4 4 6 2 11 9 15 17 10 4 8 16 18 21 19 17 16 16 15 13 11 9 8 7 6 4 4 3 3 3 4 5 5 5 5 5 6 6 6 7 7 8 8 9 10 10
2 4 7 5 5 6 6 5 3 3 2 9 11 14 15 20 21 18 20 19 17 15 14 12 10 8 7 6 5 4 3 3 3 3 4 6 5 5 5 6 6 6 7 8 8 9 9 9 10
1 7 7 9 4 5 4 9 13 15 6 9 13 13 15 18 19 24 22 21 19 15 15 14 12 10 9 7 5 3 3 2 3 3 4 4 4 5 6 6 7 7 8 10 9 9 9 9 10
3 3 5 5 7 3 4 16 9 3 8 13 14 14 15 20 23 21 19 19 18 16 16 14 10 10 8 6 4 3 3 2 2 1 0 2 5 6 6 6 6 7 8 8 8 9 9 10 10
5 10 9 5 8 4 11 16 3 5 8 16 18 16 15 17 20 21 20 20 19 18 16 14 11 10 8 7 5 4 4 3 1 0 1 3 5 6 6 6 6 7 7 7 7 8 9 11 12
11 8 8 11 5 8 11 21 22 21 16 25 25 18 17 18 24 22 22 20 18 17 16 15 12 12 11 7 5 4 3 2 1 3 2 3 4 5 6 6 7 7 7 7 7 10 9 11 12
7 8 16 14 4 5 16 20 25 23 20 26 25 21 17 20 17 19 20 19 18 17 17 16 15 13 9 7 5 4 4 3 3 3 4 6 5 6 6 6 6 7 7 8 9 9 11 9 10
8 13 20 12 2 7 14 21 24 24 27 25 25 23 16 16 15 17 19 21 20 20 18 17 15 14 10 6 4 2 2 2 3 4 6 6 5 6 6 7 8 8 7 8 8 9 9 8 5
11 18 14 10 5 7 12 18 8 8 12 15 22 19 14 16 16 18 21 23 20 21 20 18 16 14 11 9 5 3 2 3 5 6 4 4 6 6 6 8 9 8 7 7 8 8 9 8 8
13 9 11 7 5 12 4 22 10 9 11 13 22 12 12 15 14 16 20 22 24 21 19 18 16 14 11 10 7 8 6 6 4 3 5 6 7 7 8 9 9 8 7 9 8 7 8 9 10
5 2 4 3 8 6 11 14 9 2 7 19 21 11 15 14 15 17 20 20 21 18 18 17 16 14 12 12 10 8 9 5 4 5 7 8 8 9 8 9 10 10 8 9 11 11 11 10 10
9 3 2 2 3 11 17 16 5 5 7 9 12 10 9 12 13 12 13 16 18 18 18 17 18 16 15 14 14 12 10 8 6 7 5 6 7 7 9 10 10 10 10 10 10 11 13 13 13
5 5 7 7 6 13 4 10 19 14 13 14 18 7 7 8 10 12 16 17 18 21 20 17 20 18 16 15 14 12 11 10 10 8 7 7 7 7 10 10 10 9 11 12 12 13 14 14 15
12 8 7 13 13 21 7 14 13 10 15 17 7 5 4 7 8 11 15 17 19 20 22 22 21 19 17 15 14 12 11 7 7 7 5 6 8 9 9 10 10 12 13 13 13 12 13 14 14
9 10 2 4 3 9 11 22 8 6 11 9 15 12 14 11 11 13 15 16 18 20 23 22 22 19 18 16 13 12 10 9 7 8 7 8 9 8 10 11 11 12 13 15 14 12 15 15 16
4 5 5 3 7 17 25 31 18 11 16 10 12 16 16 10 10 12 14 17 16 18 20 22 22 21 18 16 12 10 10 9 7 7 9 9 9 9 10 11 11 12 13 14 14 14 15 17 14
7 7 5 3 6 9 19 21 3 5 3 12 14 15 12 12 13 12 13 14 16 16 19 20 20 21 17 15 13 11 9 8 7 7 7 8 9 9 10 10 11 12 13 15 15 16 17 18 19
8 15 18 10 11 11 13 34 6 5 5 4 6 6 8 9 11 11 13 15 16 18 19 20 19 19 17 15 13 11 9 8 7 7 7 7 9 9 9 10 11 12 13 14 15 16 16 18 20
Wind_Direction
122 131 294 235 233 238 154 173 213 171 181 117 135 203 209 3 202 0 118 70 70 57 23 48 40 37 47 53 53 56 57 57 55 53 51 44 42 37 35 30 27 16 354 339 334 330 331 340 329
137 154 220 240 253 241 137 157 199 179 113 127 138 142 188 193 133 133 152 111 108 76 41 58 43 53 54 51 52 56 61 59 58 56 47 48 51 45 39 30 22 20 12 359 343 334 330 338 339
124 271 248 245 257 276 270 185 180 152 144 161 153 258 173 154 147 144 106 116 115 95 53 59 48 55 56 56 57 58 55 54 55 56 53 51 52 43 33 34 32 28 18 13 3 1 353 342 333
184 165 157 251 259 232 297 178 161 146 182 219 220 200 195 37 150 144 135 128 111 90 68 70 59 60 59 58 58 56 53 53 53 53 50 57 48 41 35 34 28 23 18 11 1 359 358 351 342
198 220 225 241 233 257 218 197 178 175 170 174 185 176 220 162 122 137 141 136 114 96 81 76 65 64 62 63 62 61 60 56 54 53 51 52 43 38 35 29 25 20 12 6 3 2 357 350 349
197 278 236 253 212 233 214 186 186 206 188 139 203 220 178 127 154 151 149 130 120 112 101 105 71 68 67 65 64 63 63 62 60 55 52 48 43 36 30 22 20 14 7 4 2 3 359 357 350
265 234 296 291 287 243 206 162 206 206 214 214 32 233 100 170 163 157 148 138 131 126 132 124 105 93 78 67 66 64 68 70 68 64 56 49 47 38 32 27 18 14 6 358 360 356 352 349 345
234 250 198 202 219 245 160 177 221 211 218 72 199 236 200 182 162 156 153 152 150 143 138 124 121 112 97 90 69 73 75 76 71 61 53 44 44 33 30 19 15 11 8 360 353 347 344 338 333
236 234 242 225 196 139 158 206 162 135 205 210 199 244 81 155 161 164 164 167 163 156 151 144 137 135 128 113 93 92 77 72 69 61 45 46 28 21 12 16 6 7 3 358 354 349 340 333 315
245 256 249 230 191 238 197 225 192 206 200 223 224 210 159 162 175 180 186 184 184 173 164 155 155 143 137 119 107 89 78 62 57 49 41 31 23 16 360 360 354 355 358 352 350 348 335 332 332
174 269 171 227 233 223 228 229 201 234 237 235 222 211 183 180 188 194 198 195 188 175 167 168 163 155 147 136 135 116 93 84 67 52 39 31 21 12 7 352 352 351 356 351 346 340 344 333 323
241 242 236 268 188 191 222 148 221 226 248 13 275 207 182 189 195 199 198 192 180 178 173 171 170 162 147 152 145 139 124 102 87 66 43 25 21 11 5 360 349 348 346 339 337 332 326 322 315
229 207 224 252 252 241 204 240 254 245 247 238 241 192 197 201 203 203 199 192 186 184 175 174 172 168 158 163 159 138 119 96 79 67 50 22 17 10 354 348 341 337 337 335 329 329 329 323 316
168 257 262 267 250 239 239 245 224 239 184 219 223 223 213 210 204 197 198 194 192 185 179 170 175 175 170 168 156 138 124 106 85 68 46 31 7 357 345 342 337 333 339 333 324 327 324 317 314
335 290 274 222 221 236 214 254 234 251 194 233 224 225 220 217 205 208 199 195 188 185 178 181 176 175 177 167 146 145 132 128 99 70 55 27 360 348 344 335 330 335 331 320 319 322 319 316 311
239 247 255 154 175 159 216 277 253 272 226 244 236 225 216 217 212 212 203 199 193 187 184 178 177 177 173 161 148 162 166 137 117 85 318 346 351 344 335 328 319 327 316 319 321 325 323 315 311
210 272 230 269 209 154 215 281 253 201 234 263 258 244 226 219 213 212 203 200 192 185 184 182 182 180 173 170 176 189 190 188 135 230 305 345 332 325 317 305 303 315 313 314 319 319 317 313 312
262 243 249 261 180 215 231 258 278 272 252 264 271 258 238 219 215 206 202 199 189 187 184 181 182 183 181 178 182 190 186 200 231 232 255 266 284 288 297 306 309 305 302 307 317 313 314 308 309
269 258 260 266 190 244 254 261 269 281 274 263 270 262 244 232 223 204 199 192 187 188 186 189 185 186 184 187 191 196 197 195 243 220 252 251 282 290 297 296 297 293 297 314 315 310 310 314 317
233 260 264 280 233 221 274 272 272 266 267 269 272 269 249 238 221 203 195 194 192 188 190 192 192 187 193 189 177 175 173 233 268 261 252 252 288 286 294 300 297 291 293 300 309 317 308 304 311
226 235 254 266 325 231 292 270 235 255 264 269 260 260 251 226 212 200 200 198 193 193 192 192 192 190 189 180 161 158 205 250 240 233 240 260 270 290 286 276 277 288 299 299 296 295 298 295 297
238 229 244 263 293 280 1 290 279 249 242 263 271 241 223 214 210 201 200 200 197 195 192 192 188 185 184 179 185 202 218 229 223 269 272 284 295 293 279 282 283 291 283 278 281 284 285 286 280
249 102 169 205 254 316 248 268 276 163 242 257 261 257 222 207 198 199 201 201 198 190 189 189 186 184 180 185 194 199 219 239 271 281 285 287 290 280 285 279 281 276 272 278 281 282 277 272 274
135 115 135 146 259 249 252 226 270 216 209 248 265 228 203 195 193 201 196 195 195 191 191 186 186 187 184 185 194 203 213 218 231 241 260 264 271 286 274 266 270 276 281 281 287 287 280 279 275
196 179 277 253 222 263 144 234 263 282 239 233 253 251 183 176 182 184 187 190 190 193 195 188 189 189 186 190 194 199 207 218 236 244 248 267 276 267 265 280 290 294 297 296 291 284 279 277 274
184 217 202 260 278 288 112 248 275 227 252 247 271 264 206 215 204 201 194 194 193 193 196 192 191 190 186 189 191 194 203 211 224 241 262 265 265 271 289 292 289 290 294 293 289 285 278 276 274
159 199 238 286 111 280 248 257 232 187 256 249 251 242 240 229 204 204 201 197 195 196 197 194 188 191 187 186 186 191 194 205 215 229 243 255 263 279 290 290 293 294 289 286 285 281 282 281 278
233 135 138 198 259 258 275 282 275 234 242 213 237 237 238 221 214 208 204 203 202 200 198 197 191 187 182 182 186 187 191 201 213 231 243 258 276 282 283 288 293 294 291 288 286 283 281 279 276
168 202 226 313 227 255 269 266 81 196 221 206 220 231 239 224 215 207 213 206 207 201 197 192 191 184 177 178 178 184 189 194 212 234 257 267 279 281 287 296 296 293 292 290 288 285 285 281 280
258 231 212 223 220 235 263 273 111 46 141 191 242 253 239 228 212 213 210 204 202 203 196 193 190 181 175 174 175 185 184 192 212 228 252 266 277 286 295 302 296 292 291 293 291 290 287 285 284